Погода в Бад-Ишле

Австрия     47°42′47″N   13°37′12″E
темп.,
°C
ветер,
м/с
пор.,
м/с
влажн.,
%
обл.,
%
осадки,
мм/ч
давл.,
гПа
погр.,
м
16 июня, ср
ср1623:00+13ю2289100 0.0 101913
02:00+12ю229035 0.0 101922
05:00+11ю22896 0.0 101930
08:00+17ююв12645 0.0 1018202
11:00+23св11415 0.0 10161312
14:00+25ссв22335 0.0 10152038
17:00+25ссв32435 0.0 10141407
20:00+19св11825 0.1 101515
17 июня, чт
чт1723:00+15ююв22925 0.0 101633
02:00+13ююв33845 0.0 101650
05:00+12ююв33865 0.0 101649
08:00+19ююв22665 0.0 1016206
11:00+26ссв11445 0.0 10151093
14:00+28с22360 0.0 10142449
17:00+26ссв22445 0.0 10141526
20:00+21юв11795 0.1 101512
18 июня, пт
пт1823:00+16ююв328164 0.0 101640
02:00+15ююв3384100 0.0 101651
05:00+14ююв338789 0.0 101655
08:00+19ююв23675 0.0 1015236
11:00+26ссз11487 0.0 10151236
14:00+27с33425 0.0 10132573
17:00+26св115266 0.1 10131742
20:00+17ю239185 2.4 101662
19 июня, сб
сб1923:00+15ю228883 0.0 101726
02:00+14ю2291100 0.0 101821
05:00+14ю2290100 0.0 101920
08:00+19юз11745 0.0 1019184
11:00+24ссз225887 0.1 10181160
14:00+26с224776 0.3 10172034
17:00+27ссз214645 0.0 10161851
20:00+22с11795 0.1 101611
20 июня, вс
вс2023:00+17ююв22928 0.4 101815
02:00+15ююв22935 0.4 101835
05:00+14ююв32915 0.0 101739
08:00+20ююв237527 0.0 1015140
11:00+28юв123871 0.0 1012932
14:00+31всв232629 0.0 10091886
17:00+31св343198 0.0 10071251
20:00+24юв227483 0.0 100636